Harlan, KY

12:35 AM EDT on June 25, 2017 (GMT -0400)
Harlan

Weather History for KI35 - January, 2013

Change the Weather History Date:

Saturday, January 12, 2013

  Actual Average (KLOZ) Record (KLOZ)
Temperature  
Mean Temperature 64 °F -  
Max Temperature 68 °F 41 °F 68 °F (1995)
Min Temperature 59 °F 22 °F -4 °F (1981)
Degree Days  
Heating Degree Days 2    
Growing Degree Days 14 (Base 50)    
Moisture  
Dew Point 58 °F    
Average Humidity 82    
Maximum Humidity 100    
Minimum Humidity 68    
Precipitation  
Precipitation 0.00 in - - ()
Sea Level Pressure  
Sea Level Pressure 30.07 in    
Wind  
Wind Speed 1 mph (SSE)    
Max Wind Speed 7 mph    
Max Gust Speed -    
Visibility 9 miles    
Events      
Averages and records for this station are not official NWS values.
T = Trace of Precipitation, MM = Missing Value Source: NWS Daily Summary

Daily Weather History Graph

Daily Weather History Graph

Search for Another Location

Airport or City:

Trip Planner

Search our weather history database for the weather conditions in past years. The results will help you decide how hot, cold, wet, or windy it might be!

Date:

Astronomy

Jan. 12, 2013 Rise Set
Actual Time 7:46 AM EST 5:37 PM EST
Civil Twilight 7:17 AM EST 6:06 PM EST
Nautical Twilight 6:45 AM EST 6:38 PM EST
Astronomical Twilight 6:14 AM EST 7:09 PM EST
Moon 8:06 AM EST (1/12) 7:02 PM EST (1/12)
Length of Visible Light 10h 48m
Length of Day
9h 51m
New Moon, 1% of the Moon is Illuminated
Jan 12
New Moon
Jan 18
First Quarter
Jan 26
Full
Feb 3
Last Quarter
Feb 10
New

Hourly Weather History & Observations

Time (EST) Temp. Dew Point Humidity Pressure Visibility Wind Dir Wind Speed Gust Speed Precip Events Conditions
12:15 AM 62.6 °F 55.4 °F 77% 30.08 in 10.0 mi Calm Calm - N/A   Overcast
12:35 AM 62.6 °F 55.4 °F 77% 30.08 in 10.0 mi West 4.6 mph - N/A   Overcast
12:55 AM 62.6 °F 55.4 °F 77% 30.07 in 10.0 mi Calm Calm - N/A   Overcast
1:15 AM 62.6 °F 57.2 °F 82% 30.07 in 10.0 mi NNW 3.5 mph - N/A   Overcast
1:35 AM 62.6 °F 57.2 °F 82% 30.07 in 10.0 mi Calm Calm - N/A   Overcast
1:55 AM 62.6 °F 59.0 °F 88% 30.07 in 10.0 mi Calm Calm - N/A   Overcast
2:15 AM 60.8 °F 59.0 °F 94% 30.08 in 5.0 mi Calm Calm - N/A   Overcast
2:35 AM 60.8 °F 59.0 °F 94% 30.08 in 10.0 mi Calm Calm - N/A   Overcast
2:55 AM 60.8 °F 59.0 °F 94% 30.09 in 7.0 mi Calm Calm - N/A   Overcast
3:15 AM 62.6 °F 59.0 °F 88% 30.09 in 10.0 mi Calm Calm - N/A   Overcast
3:35 AM 62.6 °F 59.0 °F 88% 30.08 in 10.0 mi Calm Calm - N/A   Overcast
3:55 AM 60.8 °F 59.0 °F 94% 30.08 in 10.0 mi Calm Calm - N/A   Overcast
4:15 AM 60.8 °F 59.0 °F 94% 30.07 in 10.0 mi Calm Calm - N/A   Overcast
4:35 AM 60.8 °F 59.0 °F 94% 30.08 in 10.0 mi Calm Calm - N/A   Overcast
4:55 AM 60.8 °F 59.0 °F 94% 30.08 in 10.0 mi North 6.9 mph - N/A   Overcast
5:15 AM 60.8 °F 59.0 °F 94% 30.07 in 10.0 mi North 6.9 mph - N/A   Overcast
5:35 AM 60.8 °F 59.0 °F 94% 30.07 in 10.0 mi North - - N/A   Mostly Cloudy
5:55 AM 60.8 °F 59.0 °F 94% 30.07 in 10.0 mi Calm Calm - N/A   Mostly Cloudy
6:15 AM 60.8 °F 59.0 °F 94% 30.08 in 10.0 mi Calm Calm - N/A   Overcast
6:35 AM 59.0 °F 59.0 °F 100% 30.08 in 2.5 mi Calm Calm - N/A   Mostly Cloudy
6:55 AM 59.0 °F 57.2 °F 94% 30.09 in 7.0 mi Calm Calm - N/A   Overcast
7:15 AM 59.0 °F 59.0 °F 100% 30.10 in 7.0 mi Calm Calm - N/A   Overcast
7:35 AM 59.0 °F 59.0 °F 100% 30.11 in 1.5 mi Calm Calm - N/A   Overcast
7:55 AM 59.0 °F 59.0 °F 100% 30.12 in 7.0 mi Calm Calm - N/A   Overcast
8:15 AM 59.0 °F 59.0 °F 100% 30.12 in 1.8 mi Calm Calm - N/A   Overcast
8:35 AM 59.0 °F 59.0 °F 100% 30.13 in 10.0 mi Calm Calm - N/A   Overcast
8:55 AM 60.8 °F 59.0 °F 94% 30.13 in 10.0 mi Calm Calm - N/A   Mostly Cloudy
9:15 AM 60.8 °F 59.0 °F 94% 30.13 in 7.0 mi Calm Calm - N/A   Scattered Clouds
9:35 AM 60.8 °F 59.0 °F 94% 30.14 in 10.0 mi Calm Calm - N/A   Mostly Cloudy
9:55 AM 60.8 °F 59.0 °F 94% 30.14 in 10.0 mi Calm Calm - N/A   Overcast
10:15 AM 62.6 °F 59.0 °F 88% 30.14 in 10.0 mi Calm Calm - N/A   Overcast
10:35 AM 62.6 °F 60.8 °F 94% 30.14 in 10.0 mi Calm Calm - N/A   Scattered Clouds
10:55 AM 64.4 °F 59.0 °F 83% 30.13 in 10.0 mi Calm Calm - N/A   Mostly Cloudy
11:35 AM 68.0 °F 59.0 °F 73% 30.11 in 10.0 mi Calm Calm - N/A   Overcast
11:55 AM 68.0 °F 59.0 °F 73% 30.10 in 10.0 mi Calm Calm - N/A   Overcast
12:15 PM 68.0 °F 59.0 °F 73% 30.10 in 10.0 mi Calm Calm - N/A   Overcast
12:35 PM 68.0 °F 59.0 °F 73% 30.09 in 10.0 mi SE 3.5 mph - N/A   Overcast
12:55 PM 68.0 °F 59.0 °F 73% 30.09 in 10.0 mi SSE 4.6 mph - N/A   Overcast
1:15 PM 68.0 °F 59.0 °F 73% 30.09 in 10.0 mi SW 3.5 mph - N/A   Overcast
1:35 PM 68.0 °F 59.0 °F 73% 30.08 in 10.0 mi Calm Calm - N/A   Overcast
1:55 PM 68.0 °F 59.0 °F 73% 30.08 in 10.0 mi Calm Calm - N/A   Overcast
2:15 PM 66.2 °F 59.0 °F 78% 30.06 in 10.0 mi Calm Calm - N/A   Overcast
2:35 PM 68.0 °F 60.8 °F 78% 30.07 in 10.0 mi Calm Calm - N/A   Overcast
2:55 PM 68.0 °F 59.0 °F 73% 30.06 in 10.0 mi Calm Calm - N/A   Overcast
3:15 PM 68.0 °F 59.0 °F 73% 30.07 in 10.0 mi Calm Calm - N/A   Overcast
3:35 PM 68.0 °F 59.0 °F 73% 30.06 in 10.0 mi WNW 3.5 mph - N/A   Overcast
3:55 PM 68.0 °F 59.0 °F 73% 30.06 in 10.0 mi Calm Calm - N/A   Mostly Cloudy
4:15 PM 68.0 °F 59.0 °F 73% 30.05 in 10.0 mi Calm Calm - N/A   Overcast
4:35 PM 68.0 °F 59.0 °F 73% 30.05 in 10.0 mi Calm Calm - N/A   Overcast
4:55 PM 68.0 °F 57.2 °F 68% 30.04 in 10.0 mi SSE 3.5 mph - N/A   Overcast
5:15 PM 68.0 °F 57.2 °F 68% 30.04 in 10.0 mi South 4.6 mph - N/A   Overcast
5:35 PM 68.0 °F 57.2 °F 68% 30.04 in 10.0 mi SE 5.8 mph - N/A   Overcast
5:55 PM 68.0 °F 59.0 °F 73% 30.04 in 10.0 mi SSE 4.6 mph - N/A   Overcast
6:15 PM 68.0 °F 57.2 °F 68% 30.05 in 10.0 mi Calm Calm - N/A   Overcast
6:35 PM 66.2 °F 59.0 °F 78% 30.04 in 10.0 mi SE 3.5 mph - N/A   Overcast
6:55 PM 66.2 °F 57.2 °F 73% 30.05 in 10.0 mi South 4.6 mph - N/A   Overcast
7:15 PM 66.2 °F 57.2 °F 73% 30.04 in 10.0 mi Calm Calm - N/A   Overcast
7:35 PM 64.4 °F 57.2 °F 77% 30.03 in 10.0 mi ESE 4.6 mph - N/A   Mostly Cloudy
8:15 PM 64.4 °F 55.4 °F 73% 30.02 in 10.0 mi Calm Calm - N/A   Scattered Clouds
8:35 PM 64.4 °F 55.4 °F 73% 30.02 in 10.0 mi Calm Calm - N/A   Mostly Cloudy
8:55 PM 62.6 °F 57.2 °F 82% 30.02 in 10.0 mi Calm Calm - N/A   Overcast
9:15 PM 62.6 °F 55.4 °F 77% 30.01 in 10.0 mi SE 3.5 mph - N/A   Mostly Cloudy
9:35 PM 62.6 °F 55.4 °F 77% 30.01 in 10.0 mi Calm Calm - N/A   Mostly Cloudy
9:55 PM 62.6 °F 55.4 °F 77% 30.01 in 10.0 mi Calm Calm - N/A   Overcast
10:15 PM 62.6 °F 55.4 °F 77% 30.01 in 10.0 mi Calm Calm - N/A   Mostly Cloudy
10:35 PM 64.4 °F 55.4 °F 73% 30.01 in 10.0 mi SSW 4.6 mph - N/A   Mostly Cloudy
10:55 PM 62.6 °F 55.4 °F 77% 30.00 in 10.0 mi Calm Calm - N/A   Mostly Cloudy
11:35 PM 64.4 °F 55.4 °F 73% 30.00 in 10.0 mi Calm Calm - N/A   Mostly Cloudy
11:55 PM 62.6 °F 55.4 °F 77% 30.00 in 10.0 mi Calm Calm - N/A   Scattered Clouds